Regional Weather Roundup
Issued by NWS Newport/Morehead, NC

Current Version | Previous Version | Graphics & Text | Print | Product List | Glossary Off
Versions: 1 2 3 4 5 6 7 8 9 10 11 12 13 14 15 16 17 18 19 20 21 22 23 24 25 26 27 28 29 30 31 32 33 34 35 36 37 38 39 40 41 42 43 44 45 46 47 48 49 50

000
ASUS42 KMHX 020928
RWRMHX
WEATHER ROUNDUP FOR EASTERN NORTH CAROLINA
NATIONAL WEATHER SERVICE NEWPORT/MOREHEAD CITY NC
400 AM EST MON MAR 02 2015

NOTE: "FAIR" INDICATES FEW OR NO CLOUDS BELOW 12,000 FEET
WITH NO SIGNIFICANT WEATHER AND/OR OBSTRUCTIONS TO VISIBILITY

NCZ015>017-031-032-045>047-102-103-021000-
NORTH COAST

CITY           SKY/WX    TMP DP  RH WIND       PRES   REMARKS
EDENTON        FOG       37  36  99 SW8       30.17F VSB 1/2
ELIZABETH CITY FOG       37  37 100 SW6       30.16F VSB 1
KITTY HAWK     FOG       40  40 100 W7        30.16F VSB 1/4
MANTEO         CLOUDY    39  39 100 W9        30.17F FOG

$$

NCZ045>047-081-094-103-104-021000-
CENTRAL COAST

CITY           SKY/WX    TMP DP  RH WIND       PRES   REMARKS
FRISCO         FOG       44  44 100 W7        30.19F VSB 1/4
SWANQUARTER      N/A     41 N/A N/A W5        30.15S

$$

NCZ095-097-098-100-101-021000-
SOUTHERN COAST

CITY           SKY/WX    TMP DP  RH WIND       PRES   REMARKS
BEAUFORT       CLOUDY    44  44 100 W7        30.22F FOG
CEDAR ISLAND     N/A     43 N/A N/A W9        30.24S
JACKSONVILLE   CLOUDY    44  43  96 W6        30.23F
PINEY ISLAND     N/A    N/A N/A N/A MISG      30.21F
WILMINGTON     FOG       44  44 100 SW6       30.24F VSB 1/2


$$

NCZ011>013-027>030-043-044-078>080-089-090>093-098-021000-
COASTAL PLAIN

CITY           SKY/WX    TMP DP  RH WIND       PRES   REMARKS
AHOSKIE        FOG       34  33  99 S3        30.16F VSB 1/2
CLINTON        FOG       39  39 100 SW7       30.23F VSB 1/2
ELIZABETHTOWN  FOG       40  40 100 SW3       30.23F VSB 1/4
GOLDSBORO      FOG       39  39 100 SW10      30.18F VSB 1/2
GREENVILLE     FOG       37  37 100 SW6       30.19F VSB 3/4
HAVELOCK       CLOUDY    45  44  97 W8        30.23F FOG
KENANSVILLE    FOG       39  39 100 SW3       30.23F VSB 1
KINSTON        FOG       40  39  99 SW7       30.20F VSB 1/2
NEW BERN       CLOUDY    43  42  97 SW7       30.21F FOG
RICHLANDS      CLOUDY    43  39  87 SW6       30.23F VSB 1
ROCKY MOUNT    FOG       38  38 100 S6        30.18F VSB 3/4
WASHINGTON     FOG       38  38  98 SW6       30.19F VSB 1
WHITEVILLE     CLOUDY    41  41  97 CALM      30.25S FOG

$$

AMZ130-135-150-152-154-156-158-170-250-252-270-ANZ085-086-088-633-658-670-021000-
MARINE OBSERVATIONS

STATION/POSITION TIME  TEMP    WIND        PRES    WAVE   SWELL
                       AIR SEA DIR/SP/G            HT/PER HT/PER
                 (UTC) (F)     (DEG/KT/KT) (MB)    (FT/S) (FT/S)
CHESAPEAKE LIGHT 0900   35     250/ 10/ 10 1021.2
64 E VA BEACH    0850   44 52  230/ 16/ 17 1019.6    4/ 6   2/ 8
DUCK             0900   36 34  250/ 15/ 17 1020.5
2 E DUCK         0811                        N/A     4/ 6
10 NE DUCK       0822      37                N/A     4/ 6
OREGON INLET     0900   41 42  270/  7/ 11 1021.9
HATTERAS CG      0900   45 42  260/ 10/ 12 1022.7
CAPE LOOKOUT     0900   47     250/  9/ 11 1022.8
BEAUFORT LAB     0900   44 43  280/  3/  7 1022.3
27 SE WRIGHTSVLE NOT AVBL
5 SE WRIGHTSVLE  NOT AVBL
225 S CAPE HAT   0850   71 72  200/ 14/ 16 1025.0    6/ 9   5/ 9
41 SE CHARLESTON 0850   54 68  280/  2/  4 1025.4    5/ 8   5/ 8

$$


USA.gov is the U.S. government's official web portal to all federal, state and local government web resources and services.